This is the latest recevied weather packets stored in our database for station/object OE-11190. If no packets are shown the sender has not sent any weather packets the latest 10 day(s).
| Time | Temp. | Humidity | Pressure | Rain* | Wind** | Luminosity | Snow |
|---|---|---|---|---|---|---|---|
| 1788153908 | 19.44° C | 76% | 1013.8 hPa | 0 mm | - | 45 W/m² | - |
| 1788153081 | 19.44° C | 75% | 1013.8 hPa | 0 mm | - | 61 W/m² | - |
| 1788152708 | 18.89° C | 77% | 1013.9 hPa | 0 mm | - | 61 W/m² | - |
| 1788152108 | 18.89° C | 78% | 1013.8 hPa | 0 mm | - | 45 W/m² | - |
| 1788151280 | 18.33° C | 80% | 1013.7 hPa | 0 mm | - | 23 W/m² | - |
| 1788150908 | 17.78° C | 80% | 1013.8 hPa | 0 mm | - | 8 W/m² | - |
| 1788150308 | 17.78° C | 81% | 1013.7 hPa | 0 mm | - | 0 W/m² | - |
| 1788149719 | 17.78° C | 80% | 1013.8 hPa | 0 mm | - | 0 W/m² | - |
| 1788149108 | 18.33° C | 80% | 1013.7 hPa | 0 mm | - | 0 W/m² | - |
| 1788148508 | 18.33° C | 80% | 1013.7 hPa | 0 mm | - | 0 W/m² | - |
| 1788147908 | 18.33° C | 80% | 1013.6 hPa | 0 mm | - | 0 W/m² | - |
| 1788147308 | 17.78° C | 80% | 1013.6 hPa | 0 mm | - | 0 W/m² | - |
| 1788146708 | 17.78° C | 81% | 1013.7 hPa | 0 mm | - | 0 W/m² | - |
| 1788145880 | 18.33° C | 80% | 1013.7 hPa | 0 mm | - | 0 W/m² | - |
| 1788145508 | 18.33° C | 79% | 1013.7 hPa | 0 mm | - | 0 W/m² | - |
| 1788144907 | 18.33° C | 79% | 1013.8 hPa | 0 mm | - | 0 W/m² | - |
| 1788144080 | 17.78° C | 80% | 1013.9 hPa | 0 mm | - | 0 W/m² | - |
| 1788143707 | 18.33° C | 78% | 1013.9 hPa | 0 mm | - | 0 W/m² | - |
| 1788143107 | 18.33° C | 78% | 1014.1 hPa | 0 mm | - | 0 W/m² | - |
| 1788142280 | 18.89° C | 76% | 1013.9 hPa | 0 mm | - | 0 W/m² | - |
| 1788141908 | 18.89° C | 74% | 1014.1 hPa | 0 mm | - | 0 W/m² | - |
| 1788141308 | 19.44° C | 72% | 1013.9 hPa | 0 mm | - | 0 W/m² | - |
| 1788140481 | 18.89° C | 75% | 1014.1 hPa | 0 mm | - | 0 W/m² | - |
| 1788140108 | 18.33° C | 76% | 1014.1 hPa | 0 mm | - | 0 W/m² | - |
| 1788139508 | 18.89° C | 75% | 1014.3 hPa | 0 mm | - | 0 W/m² | - |
* Rain latest hour (hover to see other rain measurements)
** Current wind speed in m/s (hover to see current wind gust speed)